Location: Palomar Mountain Lodge
(33.3110°N, 116.8495°W)
Time: 01:49:42
(UTC-07:00)

Cosmos 2341 Rocket - Pass Details

Date: 19 May 2017
Orbit: 970 x 1003 km, 82.9° (Epoch: 28 June)

Event Time Altitude Azimuth Distance (km) Brightness Sun altitude
Rises 22:58:29 0° 350° (N) 3,701 8.0 -31.0°
Reaches altitude 10° 23:01:00 10° 349° (NNW) 2,754 7.2 -31.3°
Enters shadow 23:07:03 69° 283° (WNW) 1,059 4.1 -31.9°
